Regional Weather Roundup
Issued by NWS

Home | Current Version | Previous Version | Graphics & Text | Print | Product List | Glossary On
Versions: 1 2 3 4 5 6 7 8 9 10 11 12 13 14 15 16 17 18 19 20 21 22 23 24 25 26 27 28 29 30 31 32 33 34 35 36 37 38 39 40 41 42 43 44 45 46 47 48 49 50
000
ASUS43 KDMX 281707
RWRIA

WEATHER ROUNDUP FOR IOWA
NATIONAL WEATHER SERVICE DES MOINES IA
1200 PM CDT FRI AUG 28 2015

NOTE: "FAIR" INDICATES FEW OR NO CLOUDS BELOW 12,000 FEET WITH NO
SIGNIFICANT WEATHER AND/OR OBSTRUCTIONS TO VISIBILITY.

* - THESE STATIONS ARE NOT NWS STATIONS...THUS NOT UNDER NWS
QUALITY CONTROL.  THEY ALSO DO NOT REPORT WEATHER SUCH
AS PRECIPITATION OR FOG.

IAZ001>003-012>014-020>022-031>034-043>046-281800-
   NORTHWEST IOWA

CITY           SKY/WX    TMP DP  RH WIND       PRES   REMARKS
CARROLL *      CLOUDY    68  66  94 S12G18    29.86R
CHEROKEE *     CLOUDY    64  64 100 E8        29.86S FOG
DENISON *      CLOUDY    68  66  94 S12G18    29.83S
LE MARS *      CLOUDY    66  64  94 NE12G17   29.86F
ORANGE CITY *  CLOUDY    64  64 100 E12G23    29.88F
SHELDON *      PTSUNNY   64  63  94 E18G24    29.90S FOG
SIOUX CITY     CLOUDY    69  64  84 N8        29.84S
SPENCER        LGT RAIN  64  60  87 E20G26    29.92S
STORM LAKE *   CLOUDY    64  64 100 E9G15     29.87F FOG
$$

IAZ055>058-069>071-079>083-090>094-281800-
   SOUTHWEST IOWA

CITY           SKY/WX    TMP DP  RH WIND       PRES   REMARKS
ATLANTIC *     CLOUDY    72  68  88 S12G18    29.87R
AUDUBON *      PTSUNNY   68  64  88 S10       29.88R
CLARINDA *     PTSUNNY   75  70  83 S13G23    29.90F
COUNCIL BLFS * PTSUNNY   73  68  83 SW13      29.86R
CRESTON *      CLOUDY    72  66  83 S14G22    29.93S
HARLAN  *      CLOUDY    72 -33   1 S10       29.89S
LAMONI         CLOUDY    73  65  75 S12G25    29.95S
RED OAK *      CLOUDY    75  68  78 S17G25    29.87R
SHENANDOAH *   SUNNY     79  70  73 S15G24    29.87S HX  81
$$

IAZ047>049-059>061-072>074-084-281800-
   CENTRAL IOWA

CITY           SKY/WX    TMP DP  RH WIND       PRES   REMARKS
AMES           CLOUDY    63  63 100 SE17G23   29.93R
ANKENY *       CLOUDY    64  63  94 MISG      29.92F
CHARITON *     SUNNY     70  64  83 S16G22    29.95F
DES MOINES     LGT RAIN  67  62  84 SE17      29.92F
GRINNELL*      LGT RAIN  63  61  94 SE15      29.99F
KNOXVILLE *    SUNNY     68  63  83 SE13G20   29.95S
MARSHALLTOWN   LGT RAIN  62  60  93 SE17G30   29.95S
PELLA *        CLOUDY    64  64 100 SE13G24   29.98F
PERRY *        CLOUDY    66  64  94 SE14      29.90R
$$

IAZ004>006-015-016-023>025-035-036-281800-
   NORTH CENTRAL IOWA

CITY           SKY/WX    TMP DP  RH WIND       PRES   REMARKS
ALGONA *       DRIZZLE   61  59  94 E14G21    29.96S
CLARION *      CLOUDY    61  59  94 SE17G24   29.95S FOG
ESTHERVILLE    LGT RAIN  63  62  97 E18G24    29.96R FOG
FORT DODGE *   CLOUDY    63  59  88 SE15G23   29.91S
MASON CITY     HVY RAIN  61  59  93 SE14G26   30.01R FOG
FOREST CITY *  HVY RAIN  61  61 100 SE15G21   30.00R
IOWA FALLS *   RAIN      61  59  94 SE20G28   29.97R
$$

IAZ007>011-017>019-026>030-037>042-050>054-066-281800-
   NORTHEAST IOWA

CITY           SKY/WX    TMP DP  RH WIND       PRES   REMARKS
CEDAR RAPIDS   LGT RAIN  63  62  97 E8        30.06S
CHARLES CITY * LGT RAIN  59  59 100 E23G32    29.98F
CLINTON *      CLOUDY    66  61  82 SE7       30.13S
DECORAH *      LGT RAIN  61  61 100 SE9       30.09R
DUBUQUE        CLOUDY    63  60  90 E7        30.11S
MONTICELLO *   MOSUNNY   63  61  94 CALM      30.09S
OELWEIN *      LGT RAIN  61  61 100 SE8       30.08S
WATERLOO       RAIN      61  60  97 SE21G26   29.99F FOG
$$

IAZ064-065-067-068-078-281800-
   EAST CENTRAL IOWA

CITY           SKY/WX    TMP DP  RH WIND       PRES   REMARKS
DAVENPORT      CLOUDY    67  60  78 SE8       30.10F
IOWA CITY      LGT RAIN  66  60  81 SE8       30.07F
MT. PLEASANT * CLOUDY    70  59  68 SE7       30.07S
MUSCATINE *    SUNNY     70  61  73 SE10      30.07F
QUAD CITIES    CLOUDY    68  61  78 SE7       30.10S
$$

IAZ062-063-075>077-085>089-095>099-281800-
   SOUTHEAST IOWA

CITY           SKY/WX    TMP DP  RH WIND       PRES   REMARKS
BURLINGTON     CLOUDY    68  62  81 SE10      30.07F
FAIRFIELD *    MOSUNNY   66  61  82 SE12      30.04S
FORT MADISON * SUNNY     66  63  88 SE7       30.08S
KEOKUK *       SUNNY     68  63  83 SE8       30.06F
OSKALOOSA *      N/A     66  61  82 SE13      30.02S
CENTERVILLE *  SUNNY     68  63  83 SE15G23   29.99F
OTTUMWA        CLOUDY    67  63  87 SE14      30.00S
WASHINGTON *     N/A    N/A N/A N/A MISG        N/A
$$

ABBREVIATIONS USED IN REMARKS
   TC - TEMPERATURES IN CELSIUS
  WCI - WIND CHILL INDEX
   HX - HEAT INDEX
  VSB - VISIBILITY
$$



USA.gov is the U.S. government's official web portal to all federal, state and local government web resources and services.